JFA3F EGLC-ELLX

Flight info

Callsign JFA3F
Flight time 1h 18m
Altitude 23000
Route SOQQA M87 UMTUM L9 KONAN UL607 REMBA
Aircraft PC12/L-SDFGRWY/S

Departure

Time 2026-04-28 17:20
Airport London City Airport (EGLC)

Arrival

Time 2026-04-28 18:38
Airport Luxembourg-Findel International Airport (ELLX)
Time Latitude Longitude Altitude Speed Heading
2026-04-28 16:58 51.50464 0.04356 22 ft 0 kts 332°
2026-04-28 17:13 51.50482 0.04354 24 ft 8 kts 14°
2026-04-28 17:14 51.50492 0.04398 23 ft 7 kts 113°
2026-04-28 17:14 51.50493 0.04440 22 ft 0 kts 38°
2026-04-28 17:18 51.50529 0.04446 22 ft 13 kts
2026-04-28 17:18 51.50555 0.04569 22 ft 15 kts 92°
2026-04-28 17:19 51.50560 0.04940 22 ft 54 kts 101°
2026-04-28 17:19 51.50508 0.05691 22 ft 83 kts 86°
2026-04-28 17:19 51.50483 0.06681 203 ft 91 kts 94°
2026-04-28 17:19 51.50432 0.07755 490 ft 102 kts 92°
2026-04-28 17:20 51.50363 0.08966 842 ft 107 kts 81°
2026-04-28 17:20 51.50479 0.10126 1209 ft 107 kts 61°
2026-04-28 17:20 51.51057 0.10834 1566 ft 114 kts 20°
2026-04-28 17:20 51.51880 0.10893 1825 ft 125 kts 12°
2026-04-28 17:21 51.52771 0.11312 1852 ft 139 kts 30°
2026-04-28 17:21 51.53560 0.12130 2248 ft 131 kts 41°
2026-04-28 17:21 51.54187 0.13162 2567 ft 131 kts 51°
2026-04-28 17:22 51.54995 0.15853 3230 ft 135 kts 74°
2026-04-28 17:22 51.55111 0.17382 3496 ft 140 kts 77°
2026-04-28 17:22 51.55265 0.18943 3739 ft 143 kts 77°
2026-04-28 17:23 51.55642 0.22219 4231 ft 162 kts 77°
2026-04-28 17:23 51.55878 0.24045 4493 ft 171 kts 75°
2026-04-28 17:23 51.56474 0.25719 4744 ft 177 kts 53°
2026-04-28 17:23 51.57172 0.27369 5008 ft 181 kts 62°
2026-04-28 17:24 51.57749 0.29176 5250 ft 183 kts 66°
2026-04-28 17:24 51.58465 0.30850 5503 ft 185 kts 45°
2026-04-28 17:24 51.59371 0.32274 5873 ft 179 kts 53°
2026-04-28 17:24 51.59995 0.33942 6143 ft 177 kts 79°
2026-04-28 17:25 51.59826 0.35908 6421 ft 181 kts 103°
2026-04-28 17:25 51.58935 0.39708 6958 ft 186 kts 115°
2026-04-28 17:25 51.58136 0.41370 7210 ft 189 kts 123°
2026-04-28 17:26 51.57294 0.43007 7495 ft 190 kts 122°
2026-04-28 17:26 51.56500 0.44708 7770 ft 190 kts 120°
2026-04-28 17:26 51.55743 0.46458 8044 ft 191 kts 119°
2026-04-28 17:26 51.54987 0.48216 8316 ft 192 kts 120°
2026-04-28 17:27 51.54226 0.49972 8593 ft 191 kts 120°
2026-04-28 17:27 51.53463 0.51725 8867 ft 191 kts 120°
2026-04-28 17:27 51.52700 0.53478 9145 ft 192 kts 120°
2026-04-28 17:27 51.51936 0.55230 9425 ft 192 kts 120°
2026-04-28 17:28 51.51171 0.56988 9704 ft 193 kts 121°
2026-04-28 17:28 51.49634 0.60512 10260 ft 192 kts 121°
2026-04-28 17:28 51.48877 0.62246 10509 ft 193 kts 121°
2026-04-28 17:29 51.48109 0.64003 10767 ft 192 kts 121°
2026-04-28 17:29 51.47344 0.65756 11028 ft 192 kts 121°
2026-04-28 17:29 51.46578 0.67507 11286 ft 192 kts 121°
2026-04-28 17:30 51.45049 0.71000 11794 ft 191 kts 121°
2026-04-28 17:30 51.43520 0.74490 12304 ft 191 kts 121°
2026-04-28 17:30 51.42755 0.76232 12561 ft 191 kts 121°
2026-04-28 17:31 51.41991 0.77972 12813 ft 191 kts 121°
2026-04-28 17:31 51.40463 0.81452 13326 ft 191 kts 121°
2026-04-28 17:32 51.38942 0.84909 13820 ft 191 kts 121°
2026-04-28 17:32 51.38174 0.86652 14068 ft 192 kts 121°
2026-04-28 17:32 51.37406 0.88394 14292 ft 192 kts 121°
2026-04-28 17:32 51.36637 0.90138 14513 ft 192 kts 121°
2026-04-28 17:33 51.35867 0.91883 14743 ft 192 kts 121°
2026-04-28 17:33 51.35097 0.93626 14978 ft 192 kts 121°
2026-04-28 17:33 51.34341 0.95381 15192 ft 189 kts 115°
2026-04-28 17:33 51.34082 0.96697 15316 ft 187 kts 100°
2026-04-28 17:34 51.33819 0.99468 15609 ft 190 kts 99°
2026-04-28 17:34 51.33562 1.01541 15842 ft 191 kts 102°
2026-04-28 17:34 51.33266 1.03614 16064 ft 192 kts 102°
2026-04-28 17:34 51.32972 1.05697 16307 ft 192 kts 102°
2026-04-28 17:35 51.32684 1.07785 16549 ft 193 kts 103°
2026-04-28 17:35 51.32396 1.09849 16782 ft 193 kts 103°
2026-04-28 17:35 51.32102 1.11944 17018 ft 194 kts 103°
2026-04-28 17:35 51.31805 1.14052 17263 ft 195 kts 103°
2026-04-28 17:36 51.31506 1.16177 17512 ft 197 kts 103°
2026-04-28 17:36 51.31203 1.18327 17783 ft 200 kts 103°
2026-04-28 17:36 51.30896 1.20504 18049 ft 202 kts 103°
2026-04-28 17:36 51.30585 1.22699 18323 ft 203 kts 103°
2026-04-28 17:37 51.30273 1.24909 18593 ft 204 kts 103°
2026-04-28 17:37 51.29872 1.27077 18829 ft 204 kts 111°
2026-04-28 17:37 51.29265 1.29133 19074 ft 205 kts 114°
2026-04-28 17:37 51.28666 1.31202 19320 ft 205 kts 112°
2026-04-28 17:38 51.28107 1.33297 19565 ft 205 kts 111°
2026-04-28 17:38 51.27559 1.35375 19802 ft 206 kts 111°
2026-04-28 17:38 51.26997 1.37481 20052 ft 206 kts 111°
2026-04-28 17:38 51.26424 1.39617 20318 ft 207 kts 111°
2026-04-28 17:39 51.25867 1.41696 20541 ft 207 kts 111°
2026-04-28 17:39 51.25301 1.43809 20781 ft 207 kts 112°
2026-04-28 17:39 51.24157 1.48060 21277 ft 209 kts 112°
2026-04-28 17:40 51.23581 1.50200 21531 ft 210 kts 112°
2026-04-28 17:40 51.23005 1.52341 21781 ft 210 kts 112°
2026-04-28 17:40 51.22427 1.54488 22040 ft 211 kts 112°
2026-04-28 17:40 51.21847 1.56637 22302 ft 211 kts 112°
2026-04-28 17:41 51.21266 1.58790 22567 ft 211 kts 112°
2026-04-28 17:41 51.20684 1.60946 22833 ft 212 kts 112°
2026-04-28 17:41 51.20101 1.63100 23100 ft 212 kts 112°
2026-04-28 17:41 51.19513 1.65274 23236 ft 218 kts 112°
2026-04-28 17:42 51.18903 1.67525 23229 ft 223 kts 112°
2026-04-28 17:42 51.18492 1.69036 23236 ft 225 kts 112°
2026-04-28 17:42 51.17656 1.72113 23228 ft 227 kts 112°
2026-04-28 17:42 51.17027 1.74427 23230 ft 228 kts 112°
2026-04-28 17:43 51.16397 1.76745 23234 ft 228 kts 112°
2026-04-28 17:43 51.15772 1.79037 23229 ft 229 kts 112°
2026-04-28 17:43 51.15139 1.81362 23231 ft 229 kts 112°
2026-04-28 17:43 51.14504 1.83687 23238 ft 229 kts 112°
2026-04-28 17:44 51.13868 1.86016 23226 ft 229 kts 112°
2026-04-28 17:44 51.13232 1.88343 23196 ft 229 kts 112°
2026-04-28 17:44 51.12597 1.90665 23180 ft 229 kts 113°
2026-04-28 17:44 51.11959 1.92995 23187 ft 231 kts 113°
2026-04-28 17:45 51.11316 1.95340 23187 ft 232 kts 113°
2026-04-28 17:45 51.10669 1.97697 23186 ft 233 kts 113°
2026-04-28 17:45 51.10019 2.00060 23186 ft 233 kts 113°
2026-04-28 17:45 51.09370 2.02422 23188 ft 234 kts 113°
2026-04-28 17:46 51.08717 2.04792 23188 ft 234 kts 113°
2026-04-28 17:46 51.08065 2.07159 23186 ft 234 kts 113°
2026-04-28 17:46 51.07412 2.09527 23185 ft 234 kts 113°
2026-04-28 17:46 51.06767 2.11861 23185 ft 234 kts 113°
2026-04-28 17:47 51.06113 2.14226 23186 ft 234 kts 113°
2026-04-28 17:47 51.05458 2.16593 23186 ft 234 kts 113°
2026-04-28 17:47 51.04804 2.18958 23190 ft 234 kts 113°
2026-04-28 17:47 51.04370 2.20524 23192 ft 234 kts 113°
2026-04-28 17:48 51.03494 2.23683 23192 ft 234 kts 113°
2026-04-28 17:48 51.02837 2.26047 23189 ft 234 kts 113°
2026-04-28 17:48 51.02179 2.28413 23187 ft 234 kts 113°
2026-04-28 17:48 51.01521 2.30776 23189 ft 234 kts 113°
2026-04-28 17:49 51.00864 2.33135 23187 ft 234 kts 113°
2026-04-28 17:49 51.00205 2.35495 23188 ft 234 kts 113°
2026-04-28 17:49 50.99546 2.37853 23177 ft 234 kts 114°
2026-04-28 17:49 50.98885 2.40219 23177 ft 235 kts 114°
2026-04-28 17:50 50.98229 2.42560 23178 ft 236 kts 114°
2026-04-28 17:50 50.97563 2.44940 23178 ft 236 kts 114°
2026-04-28 17:50 50.96895 2.47324 23173 ft 237 kts 114°
2026-04-28 17:50 50.96225 2.49709 23173 ft 237 kts 114°
2026-04-28 17:51 50.95555 2.52093 23174 ft 236 kts 114°
2026-04-28 17:51 50.94887 2.54471 23173 ft 236 kts 114°
2026-04-28 17:51 50.94216 2.56853 23173 ft 236 kts 114°
2026-04-28 17:51 50.93544 2.59239 23165 ft 237 kts 114°
2026-04-28 17:52 50.92872 2.61622 23165 ft 237 kts 114°
2026-04-28 17:52 50.92198 2.64007 23157 ft 237 kts 114°
2026-04-28 17:52 50.90853 2.68765 23157 ft 236 kts 114°
2026-04-28 17:53 50.90181 2.71137 23157 ft 236 kts 114°
2026-04-28 17:53 50.89509 2.73509 23157 ft 236 kts 114°
2026-04-28 17:53 50.88837 2.75877 23157 ft 236 kts 114°
2026-04-28 17:53 50.88165 2.78242 23157 ft 235 kts 114°
2026-04-28 17:54 50.87495 2.80598 23157 ft 235 kts 114°
2026-04-28 17:54 50.86824 2.82956 23153 ft 236 kts 114°
2026-04-28 17:54 50.86156 2.85302 23154 ft 238 kts 114°
2026-04-28 17:54 50.85473 2.87698 23154 ft 240 kts 114°
2026-04-28 17:55 50.84784 2.90109 23153 ft 241 kts 114°
2026-04-28 17:55 50.84094 2.92524 23156 ft 241 kts 114°
2026-04-28 17:55 50.83406 2.94932 23158 ft 240 kts 115°
2026-04-28 17:55 50.82714 2.97352 23158 ft 242 kts 115°
2026-04-28 17:56 50.82021 2.99772 23158 ft 242 kts 115°
2026-04-28 17:56 50.81323 3.02204 23150 ft 243 kts 115°
2026-04-28 17:56 50.80624 3.04637 23151 ft 243 kts 115°
2026-04-28 17:56 50.79925 3.07067 23150 ft 242 kts 115°
2026-04-28 17:57 50.79230 3.09481 23151 ft 241 kts 115°
2026-04-28 17:57 50.78534 3.11899 23152 ft 242 kts 115°
2026-04-28 17:57 50.77836 3.14318 23149 ft 242 kts 115°
2026-04-28 17:57 50.77136 3.16743 23152 ft 243 kts 115°
2026-04-28 17:58 50.76446 3.19132 23147 ft 242 kts 115°
2026-04-28 17:58 50.75746 3.21550 23147 ft 241 kts 115°
2026-04-28 17:58 50.75049 3.23958 23148 ft 241 kts 115°
2026-04-28 17:58 50.74351 3.26366 23145 ft 241 kts 115°
2026-04-28 17:59 50.73652 3.28775 23129 ft 242 kts 115°
2026-04-28 17:59 50.72948 3.31195 23131 ft 243 kts 116°
2026-04-28 17:59 50.72244 3.33617 23130 ft 243 kts 116°
2026-04-28 17:59 50.71538 3.36039 23131 ft 242 kts 116°
2026-04-28 18:00 50.70839 3.38439 23128 ft 241 kts 116°
2026-04-28 18:00 50.70138 3.40844 23129 ft 241 kts 116°
2026-04-28 18:00 50.69433 3.43260 23128 ft 243 kts 116°
2026-04-28 18:00 50.68729 3.45672 23130 ft 243 kts 116°
2026-04-28 18:01 50.68021 3.48089 23130 ft 243 kts 116°
2026-04-28 18:01 50.67316 3.50495 23131 ft 241 kts 116°
2026-04-28 18:01 50.66613 3.52898 23130 ft 241 kts 116°
2026-04-28 18:01 50.65909 3.55299 23127 ft 241 kts 116°
2026-04-28 18:02 50.65202 3.57702 23126 ft 243 kts 116°
2026-04-28 18:02 50.64490 3.60126 23127 ft 243 kts 116°
2026-04-28 18:02 50.63780 3.62536 23126 ft 243 kts 116°
2026-04-28 18:02 50.63072 3.64937 23123 ft 241 kts 116°
2026-04-28 18:03 50.62365 3.67336 23121 ft 242 kts 116°
2026-04-28 18:03 50.61667 3.69703 23126 ft 242 kts 116°
2026-04-28 18:03 50.60954 3.72118 23128 ft 245 kts 116°
2026-04-28 18:03 50.60232 3.74560 23114 ft 247 kts 117°
2026-04-28 18:04 50.59504 3.77016 23109 ft 249 kts 117°
2026-04-28 18:04 50.58773 3.79480 23109 ft 248 kts 117°
2026-04-28 18:04 50.58042 3.81940 23117 ft 249 kts 117°
2026-04-28 18:04 50.57308 3.84418 23117 ft 251 kts 117°
2026-04-28 18:05 50.56567 3.86913 23117 ft 252 kts 117°
2026-04-28 18:05 50.56074 3.88568 23121 ft 252 kts 118°
2026-04-28 18:05 50.55080 3.91907 23118 ft 252 kts 118°
2026-04-28 18:05 50.54338 3.94400 23116 ft 251 kts 118°
2026-04-28 18:06 50.53604 3.96855 23118 ft 252 kts 118°
2026-04-28 18:06 50.52861 3.99342 23115 ft 252 kts 117°
2026-04-28 18:06 50.52115 4.01839 23115 ft 253 kts 117°
2026-04-28 18:06 50.51412 4.04186 23114 ft 253 kts 117°
2026-04-28 18:07 50.50663 4.06684 23111 ft 253 kts 118°
2026-04-28 18:07 50.49908 4.09195 23111 ft 254 kts 118°
2026-04-28 18:07 50.49157 4.11699 23109 ft 254 kts 118°
2026-04-28 18:07 50.48403 4.14208 23109 ft 254 kts 117°
2026-04-28 18:08 50.47648 4.16717 23113 ft 255 kts 118°
2026-04-28 18:08 50.46892 4.19226 23112 ft 254 kts 117°
2026-04-28 18:08 50.46139 4.21725 23116 ft 253 kts 118°
2026-04-28 18:08 50.45386 4.24216 23112 ft 252 kts 118°
2026-04-28 18:09 50.44644 4.26673 23117 ft 252 kts 118°
2026-04-28 18:09 50.43891 4.29161 23116 ft 253 kts 117°
2026-04-28 18:09 50.43136 4.31654 23114 ft 253 kts 118°
2026-04-28 18:09 50.42381 4.34144 23118 ft 252 kts 118°
2026-04-28 18:10 50.41629 4.36627 23118 ft 252 kts 118°
2026-04-28 18:10 50.40878 4.39100 23112 ft 252 kts 117°
2026-04-28 18:10 50.40119 4.41592 22923 ft 257 kts 118°
2026-04-28 18:10 50.39337 4.44159 22650 ft 264 kts 117°
2026-04-28 18:11 50.38544 4.46765 22383 ft 262 kts 119°
2026-04-28 18:11 50.37776 4.49287 22118 ft 258 kts 118°
2026-04-28 18:11 50.37006 4.51802 21850 ft 255 kts 118°
2026-04-28 18:11 50.36243 4.54292 21586 ft 253 kts 118°
2026-04-28 18:12 50.35487 4.56764 21321 ft 251 kts 117°
2026-04-28 18:12 50.34544 4.59018 21055 ft 247 kts 133°
2026-04-28 18:12 50.33343 4.60944 20796 ft 247 kts 137°
2026-04-28 18:12 50.32133 4.62850 20539 ft 247 kts 135°
2026-04-28 18:13 50.30981 4.64858 20286 ft 248 kts 133°
2026-04-28 18:13 50.29847 4.66888 20037 ft 248 kts 134°
2026-04-28 18:13 50.28704 4.68891 19777 ft 246 kts 134°
2026-04-28 18:13 50.27571 4.70858 19534 ft 246 kts 134°
2026-04-28 18:14 50.26413 4.72871 19287 ft 246 kts 134°
2026-04-28 18:14 50.25290 4.74829 19050 ft 245 kts 133°
2026-04-28 18:14 50.24149 4.76815 18811 ft 245 kts 134°
2026-04-28 18:14 50.23013 4.78790 18566 ft 245 kts 134°
2026-04-28 18:15 50.21874 4.80769 18322 ft 244 kts 134°
2026-04-28 18:15 50.20741 4.82737 18047 ft 243 kts 134°
2026-04-28 18:15 50.19612 4.84696 17776 ft 242 kts 133°
2026-04-28 18:15 50.18487 4.86645 17508 ft 241 kts 134°
2026-04-28 18:16 50.17371 4.88579 17243 ft 239 kts 133°
2026-04-28 18:16 50.16262 4.90500 16978 ft 239 kts 133°
2026-04-28 18:16 50.15151 4.92422 16719 ft 238 kts 133°
2026-04-28 18:16 50.14125 4.94197 16477 ft 238 kts 132°
2026-04-28 18:17 50.13027 4.96093 16215 ft 240 kts 132°
2026-04-28 18:17 50.11907 4.98027 15962 ft 240 kts 132°
2026-04-28 18:17 50.10790 4.99955 15709 ft 239 kts 131°
2026-04-28 18:17 50.09679 5.01869 15457 ft 238 kts 131°
2026-04-28 18:18 50.08569 5.03782 15204 ft 238 kts 132°
2026-04-28 18:18 50.07460 5.05692 14960 ft 238 kts 133°
2026-04-28 18:18 50.06347 5.07605 14714 ft 238 kts 133°
2026-04-28 18:18 50.05609 5.08874 14553 ft 239 kts 132°
2026-04-28 18:19 50.04117 5.11437 14234 ft 239 kts 132°
2026-04-28 18:19 50.03015 5.13327 13990 ft 239 kts 132°
2026-04-28 18:19 50.01906 5.15231 13736 ft 240 kts 132°
2026-04-28 18:19 50.00784 5.17153 13468 ft 240 kts 132°
2026-04-28 18:20 49.99661 5.19075 13202 ft 239 kts 132°
2026-04-28 18:20 49.98548 5.20979 12938 ft 238 kts 132°
2026-04-28 18:20 49.97439 5.22876 12676 ft 236 kts 132°
2026-04-28 18:20 49.96340 5.24754 12416 ft 234 kts 132°
2026-04-28 18:21 49.95248 5.26619 12159 ft 233 kts 133°
2026-04-28 18:21 49.94160 5.28475 11912 ft 233 kts 133°
2026-04-28 18:21 49.93072 5.30329 11649 ft 231 kts 133°
2026-04-28 18:21 49.91990 5.32173 11397 ft 231 kts 133°
2026-04-28 18:22 49.90927 5.33982 11151 ft 229 kts 132°
2026-04-28 18:22 49.89888 5.35853 10901 ft 229 kts 129°
2026-04-28 18:22 49.88894 5.37765 10659 ft 227 kts 129°
2026-04-28 18:22 49.87885 5.39650 10413 ft 226 kts 130°
2026-04-28 18:23 49.86877 5.41503 10175 ft 224 kts 130°
2026-04-28 18:23 49.85893 5.43325 10087 ft 215 kts 130°
2026-04-28 18:23 49.84947 5.45082 10080 ft 210 kts 130°
2026-04-28 18:23 49.84018 5.46806 10084 ft 207 kts 130°
2026-04-28 18:24 49.83113 5.48480 10083 ft 205 kts 130°
2026-04-28 18:24 49.82496 5.49623 10084 ft 205 kts 130°
2026-04-28 18:24 49.81287 5.51860 10084 ft 204 kts 130°
2026-04-28 18:24 49.80385 5.53527 10085 ft 200 kts 130°
2026-04-28 18:25 49.79497 5.55168 10086 ft 197 kts 130°
2026-04-28 18:25 49.78622 5.56783 10084 ft 195 kts 130°
2026-04-28 18:25 49.77757 5.58379 10085 ft 192 kts 130°
2026-04-28 18:26 49.76053 5.61521 10081 ft 189 kts 130°
2026-04-28 18:26 49.75216 5.63063 10082 ft 186 kts 130°
2026-04-28 18:26 49.74383 5.64596 10080 ft 186 kts 130°
2026-04-28 18:26 49.73551 5.66128 10078 ft 187 kts 130°
2026-04-28 18:27 49.72713 5.67668 9774 ft 194 kts 130°
2026-04-28 18:27 49.71799 5.69341 9238 ft 205 kts 130°
2026-04-28 18:27 49.70912 5.70965 8730 ft 195 kts 129°
2026-04-28 18:27 49.70057 5.72531 8216 ft 187 kts 129°
2026-04-28 18:28 49.69233 5.74043 7715 ft 182 kts 128°
2026-04-28 18:28 49.68424 5.75531 7219 ft 180 kts 128°
2026-04-28 18:28 49.67625 5.76995 6734 ft 177 kts 128°
2026-04-28 18:28 49.66835 5.78443 6237 ft 175 kts 127°
2026-04-28 18:29 49.66052 5.79875 5731 ft 174 kts 127°
2026-04-28 18:29 49.65281 5.81286 5232 ft 172 kts 126°
2026-04-28 18:29 49.64514 5.82687 4777 ft 168 kts 126°
2026-04-28 18:29 49.63775 5.84039 4324 ft 167 kts 126°
2026-04-28 18:30 49.63035 5.85388 3997 ft 159 kts 125°
2026-04-28 18:30 49.62800 5.85815 3994 ft 151 kts 125°
2026-04-28 18:30 49.61787 5.87658 3978 ft 124 kts 124°
2026-04-28 18:30 49.61209 5.88737 3999 ft 146 kts 123°
2026-04-28 18:31 49.60485 5.89963 3997 ft 163 kts 136°
2026-04-28 18:31 49.59498 5.90953 4011 ft 173 kts 142°
2026-04-28 18:31 49.58455 5.91962 3999 ft 179 kts 142°
2026-04-28 18:31 49.57396 5.93003 4001 ft 182 kts 142°
2026-04-28 18:32 49.56323 5.94067 4001 ft 184 kts 142°
2026-04-28 18:32 49.55297 5.95072 3995 ft 166 kts 142°
2026-04-28 18:32 49.54466 5.96194 3997 ft 153 kts 117°
2026-04-28 18:32 49.54194 5.97685 4005 ft 146 kts 84°
2026-04-28 18:33 49.54574 5.99100 4002 ft 146 kts 57°
2026-04-28 18:33 49.55234 6.00268 3990 ft 142 kts 59°
2026-04-28 18:33 49.55701 6.01618 3722 ft 146 kts 66°
2026-04-28 18:33 49.56082 6.03048 3510 ft 139 kts 68°
2026-04-28 18:34 49.56490 6.04288 3467 ft 129 kts 65°
2026-04-28 18:34 49.56902 6.05524 3386 ft 131 kts 65°
2026-04-28 18:34 49.57351 6.06806 3061 ft 139 kts 61°
2026-04-28 18:34 49.57684 6.07652 2889 ft 139 kts 59°
2026-04-28 18:35 49.58168 6.08924 2701 ft 135 kts 64°
2026-04-28 18:35 49.58698 6.10474 2532 ft 101 kts 63°
2026-04-28 18:35 49.59024 6.11322 2327 ft 85 kts 62°
2026-04-28 18:35 49.59310 6.12073 2217 ft 80 kts 64°
2026-04-28 18:36 49.59564 6.12846 2067 ft 85 kts 64°
2026-04-28 18:36 49.59762 6.13368 2030 ft 85 kts 62°
2026-04-28 18:36 49.60051 6.14147 1945 ft 83 kts 64°
2026-04-28 18:36 49.60353 6.14974 1781 ft 90 kts 62°
2026-04-28 18:37 49.60655 6.15792 1693 ft 84 kts 62°
2026-04-28 18:37 49.60949 6.16601 1529 ft 91 kts 62°
2026-04-28 18:37 49.61257 6.17408 1448 ft 84 kts 63°
2026-04-28 18:37 49.61649 6.18463 1306 ft 87 kts 61°
2026-04-28 18:38 49.61849 6.19004 1257 ft 83 kts 62°
2026-04-28 18:38 49.62110 6.19721 1205 ft 66 kts 63°
2026-04-28 18:38 49.62241 6.20072 1208 ft 5 kts 60°
2026-04-28 18:38 49.62287 6.20195 1208 ft 36 kts 60°
2026-04-28 18:39 49.62429 6.20551 1207 ft 26 kts 41°
2026-04-28 18:39 49.62565 6.20634 1200 ft 23 kts 21°
2026-04-28 18:39 49.62713 6.20721 1194 ft 22 kts 21°
2026-04-28 18:39 49.62830 6.20836 1192 ft 19 kts 69°
2026-04-28 18:40 49.62894 6.20964 1192 ft 15 kts 345°
2026-04-28 18:40 49.62974 6.20881 1192 ft 13 kts 272°
2026-04-28 18:40 49.62965 6.20843 1192 ft 0 kts 241°